Time,TemperatureF,DewpointF,PressureIn,WindDirection,WindDirectionDegrees,WindSpeedMPH,WindSpeedGustMPH,Humidity,HourlyPrecipIn,Conditions,Clouds,dailyrainin,SoftwareType,DateUTC
2013-01-11 00:19:00,62.4,-39.4,29.80,SE,135,6.3,-999.0,1,-99.99,,,0.00,Acu-Link.com,2013-01-11 06:19:00,
2013-01-11 07:47:00,60.8,-40.4,29.83,NE,45,0.0,-999.0,1,-99.99,,,0.05,Acu-Link.com,2013-01-11 13:47:00,
2013-01-11 08:02:00,61.9,-39.7,29.83,ESE,112,0.0,-999.0,1,-99.99,,,0.06,Acu-Link.com,2013-01-11 14:02:00,
2013-01-11 08:34:00,61.9,-39.7,29.83,South,180,0.0,-999.0,1,-99.99,,,0.06,Acu-Link.com,2013-01-11 14:34:00,
2013-01-11 16:03:00,67.6,1.4,29.75,East,90,2.7,-999.0,7,-99.99,,,0.07,Acu-Link.com,2013-01-11 22:03:00,
2013-01-11 16:53:00,68.0,48.7,29.75,SSE,157,1.7,-999.0,50,-99.99,,,0.07,Acu-Link.com,2013-01-11 22:53:00,
2013-01-11 17:33:00,66.6,-36.9,29.76,SSE,157,0.0,-999.0,1,-99.99,,,0.07,Acu-Link.com,2013-01-11 23:33:00,
2013-01-11 18:17:00,66.2,-37.1,29.76,ESE,112,0.0,-999.0,1,-99.99,,,0.07,Acu-Link.com,2013-01-12 00:17:00,
2013-01-11 18:32:00,66.2,-37.1,29.76,ESE,112,0.0,-999.0,1,-99.99,,,0.07,Acu-Link.com,2013-01-12 00:32:00,
2013-01-11 18:48:00,66.2,-37.1,29.76,ESE,112,1.7,-999.0,1,-99.99,,,0.07,Acu-Link.com,2013-01-12 00:48:00,
2013-01-11 19:11:00,66.4,-37.0,29.77,SSE,157,1.1,-999.0,1,-99.99,,,0.07,Acu-Link.com,2013-01-12 01:11:00,
2013-01-11 19:27:00,66.6,-36.9,29.77,SSE,157,1.7,-999.0,1,-99.99,,,0.07,Acu-Link.com,2013-01-12 01:27:00,
2013-01-11 19:50:00,66.9,-36.7,29.77,SSE,157,1.7,-999.0,1,-99.99,,,0.07,Acu-Link.com,2013-01-12 01:50:00,
2013-01-11 20:11:00,66.9,-36.7,29.77,SE,135,1.7,-999.0,1,-99.99,,,0.07,Acu-Link.com,2013-01-12 02:11:00,
2013-01-11 20:34:00,67.3,-36.4,29.77,SSE,157,3.7,-999.0,1,-99.99,,,0.07,Acu-Link.com,2013-01-12 02:34:00,
2013-01-11 20:50:00,67.1,-36.6,29.76,SE,135,2.7,-999.0,1,-99.99,,,0.07,Acu-Link.com,2013-01-12 02:50:00,
2013-01-11 21:25:00,67.5,-36.3,29.76,SE,135,2.2,-999.0,1,-99.99,,,0.07,Acu-Link.com,2013-01-12 03:25:00,
2013-01-11 21:41:00,67.5,-36.3,29.76,SSW,202,2.7,-999.0,1,-99.99,,,0.07,Acu-Link.com,2013-01-12 03:41:00,
2013-01-11 21:58:00,67.5,-36.3,29.76,SSE,157,3.7,-999.0,1,-99.99,,,0.07,Acu-Link.com,2013-01-12 03:58:00,
2013-01-11 22:14:00,67.6,-36.3,29.77,SSE,157,4.7,-999.0,1,-99.99,,,0.07,Acu-Link.com,2013-01-12 04:14:00,
2013-01-11 22:29:00,67.6,-36.3,29.76,South,180,5.3,-999.0,1,-99.99,,,0.07,Acu-Link.com,2013-01-12 04:29:00,
2013-01-11 22:48:00,67.8,-36.1,29.76,South,180,5.8,-999.0,1,-99.99,,,0.07,Acu-Link.com,2013-01-12 04:48:00,
2013-01-11 23:24:00,68.0,-36.0,29.76,SSE,157,2.2,-999.0,1,-99.99,,,0.07,Acu-Link.com,2013-01-12 05:24:00,